GHSA State Cross Country Championships 2017

Carrollton, GA

GHSA State Cross Country Championships 2017 vs GHSA State Cross Country Championships 2015

Aggregate Data Points
Difference This Meet That Meet
Overall Athletes +929 2849 1920
Overall Average -58.60 22:36.67 23:35.27
1st-10th Place -49.98 16:17.64 17:07.62
1st-25th Place -54.71 16:29.66 17:24.37
1st-50th Place -53.72 16:44.51 17:38.23
1st-100th Place -52.36 17:02.42 17:54.78
Common Athletes -- -- 392
Ran Faster 263 328 65
Ran Season Best 9 10 1
Average Time -1:14.08 21:39.50 22:53.58
Median Time -1:06.60 21:15.81 22:22.41
Middle 80% Times -1:11.74 21:24.65 22:36.39
Top 10% Times -1:19.49 17:02.46 18:21.95
Top 25% Times -1:22.60 17:45.06 19:07.66
Top 50% Times -1:18.52 18:50.04 20:08.56
Bottom 50% Times -1:09.64 24:28.96 25:38.60
Bottom 25% Times -1:18.68 26:22.43 27:41.11
Bottom 10% Times -1:27.97 28:27.04 29:55.00
Average Difference -1:13.60 -- --
Median Difference -56.69 -- --
Middle 80% Difference -1:10.41 -- --
Top 10% Difference -1:08.13 -- --
Top 50% Difference -1:10.00 -- --
Top 25% Difference -1:06.24 -- --
Top 50% Difference -1:10.00 -- --
Bottom 50% Difference -1:17.29 -- --
Bottom 25% Difference -1:28.40 -- --
Bottom 10% Difference -1:45.65 -- --

Performances of Common Athletes
Athlete Team Difference This Meet That Meet
Nick Nyman Starrs Mill High School -2:08.43 16:09.20 18:17.63
Audrick Pyronneau Hiram High School -1:44.95 16:19.78 18:04.73
Zach Jaeger McIntosh High School -2:00.04 16:25.49 18:25.53
Devan Crow North Hall -1:55.51 16:26.34 18:21.85
Adrian Hernandez Allatoona HS -1:48.76 16:26.40 18:15.16
Calan Gizelbach Forsyth Central -1:34.95 16:26.95 18:01.90
Knox Pittman Marist -1:12.22 16:32.26 17:44.48
Will Wallace Westminster School -1:59.76 16:32.66 18:32.42
Koi Williams Alexander -1:35.65 16:34.99 18:10.64
Shane Shelafoe East Jackson High School -2:48.59 16:38.32 19:26.91
Jack Douglass Pace Academy -1:11.66 16:44.75 17:56.41
Harrison Morris Oconee County High School -1:46.39 16:45.99 18:32.38
Jack Filan Cambridge HS -1:49.69 16:47.95 18:37.64
Alex Salgado Columbus High School -1:11.02 16:51.53 18:02.55
Lance Underwood Union County HS -1:37.61 16:52.47 18:30.08
Tanner Reid Perry High School -1:06.67 16:56.05 18:02.72
Brennan O'Connor Blessed Trinity -1:11.69 16:58.05 18:09.74
Mark White Lakeside, Evans -58.27 17:01.84 18:00.11
Griffin McCauley Paideia -22.43 17:02.42 17:24.85
Hans Ames South Effingham High School -1:33.45 17:09.71 18:43.16
Peter Huff Westminster School -53.30 17:11.46 18:04.76
John Isaac Autry Lakeside, Evans -2:11.74 17:11.74 19:23.48
Rakeem Littles Richmond Hill -1:05.57 17:14.43 18:20.00
Antaures Jackson Eagle's Landing High School -1:34.02 17:15.56 18:49.58
Thomas Hall Whitewater High School -57.51 17:16.04 18:13.55
Cody Wood Dawson County -2:38.62 17:18.67 19:57.29
Austin Muse Alexander -1:00.06 17:18.79 18:18.85
Matthew Lubert Blessed Trinity -1:09.47 17:19.11 18:28.58
Aidan Goldston Midtown -1:05.33 17:19.77 18:25.10
Jesse Martinez Murray County High School -1:50.31 17:20.44 19:10.75
Ricardo Santana Toombs County HS -3:00.94 17:23.89 20:24.83
David Reteneller Marist -1:01.33 17:28.30 18:29.63
Jacob Ash North Oconee -1:54.58 17:29.37 19:23.95
Christopher Shelp Dawson County -1:43.38 17:29.42 19:12.80
Jimmy Cochran Banks County HS -1:57.61 17:30.82 19:28.43
Rukundo Uwimana Clarkston -1:10.88 17:31.75 18:42.63
Alex Van Schoor Galloway -1:45.89 17:32.66 19:18.55
Cooper Williams Richmond Hill -1:46.63 17:32.85 19:19.48
Brandon Potra Hebron Christian -2:46.54 17:34.32 20:20.86
William Ponder Walnut Grove HS -2:31.90 17:35.86 20:07.76
Ngabo Daniel Clarkston -1:17.36 17:36.41 18:53.77
Erik Martinez Lakeview-Fort Oglethorpe -2:02.44 17:36.69 19:39.13
Sam Amick Decatur High School -2:30.17 17:37.49 20:07.66
Zac Cantrell Creekview -1:31.72 17:39.04 19:10.76
Jallah Galimah Heritage High School -1.40 17:39.65 17:41.05
Guy Gober Rabun County -2:18.45 17:41.85 20:00.30
Chaney Holder Armuchee -3:16.73 17:42.55 20:59.28
Ryan Iyer Athens Academy -42.23 17:44.06 18:26.29
Alex Sosa Gainesville High School -1:31.14 17:46.95 19:18.09
Edwin Amaya Chestatee -2:22.86 17:47.33 20:10.19
Wesley John Oconee County High School -1:15.74 17:49.37 19:05.11
Jack Drury Landmark Christian School -1:32.49 17:49.70 19:22.19
Miguel Lopez Gainesville High School -2:18.50 17:53.75 20:12.25
Hunter Cochran Banks County HS -1:43.59 17:53.90 19:37.49
Seth Ledford Banks County HS -1:58.72 17:57.37 19:56.09
Edwin Chavez Pepperell High School -2:44.98 18:00.76 20:45.74
Dawson Miller Jackson County -2:55.14 18:00.96 20:56.10
Derek Hildebrand Jefferson High School -1:10.41 18:01.53 19:11.94
Paul Ratliff Allatoona HS -44.00 18:01.87 18:45.87
Thomas Tucker West Laurens High School -2:35.00 18:02.49 20:37.49
Hayden Hasberger Northgate +1:35.99 19:39.13 18:03.14
Leo Pryor Blessed Trinity -5.61 18:05.73 18:11.34
Brett Horton Veterans HS -2:41.57 18:07.06 20:48.63
Eli Boland Jones County High School -1:43.61 18:07.29 19:50.90
Zachary Justice Whitefield Academy -2:00.06 18:07.35 20:07.41
Chris Youngblood Creekview -1:47.81 18:08.75 19:56.56
Griffin Hodges Veterans HS -2:02.35 18:09.75 20:12.10
Carlos Cruz Gilmer High -1:13.86 18:09.97 19:23.83
Bennett Solomon Chamblee -2:04.14 18:10.27 20:14.41
Joe Shipes Greenbrier High School -51.42 18:11.31 19:02.73
Bailey Gay Union Grove HS -1:47.17 18:14.47 20:01.64
Noah Irwin Athens Christian -27.44 18:15.75 18:43.19
Sabien Lindo Hiram High School -21.49 18:16.37 18:37.86
Connor Moranos Pickens County -1:54.79 18:16.88 20:11.67
Jason Blankenship Cedartown -50.44 18:18.10 19:08.54
Alex Branch Athens Academy -10.37 18:20.69 18:31.06
Erick Rojas Benedictine Military School -2:29.35 18:25.86 20:55.21
Nicholas Harris Whitefield Academy -2:14.85 18:27.25 20:42.10
Jasper Wilson Gordon Lee High School -2:50.33 18:29.65 21:19.98
Leif Andersen Marist -2:00.68 18:31.82 20:32.50
James Burgett Chamblee -2:08.01 18:34.36 20:42.37
Michael Fabiano Hebron Christian -1:00.81 18:34.52 19:35.33
Andrew White Columbus High School -1:34.90 18:34.99 20:09.89
Tanner Norman Early County -2:58.24 18:35.36 21:33.60
Michael Nelson Northgate -1:04.17 18:35.59 19:39.76
Jack Forbes Northside Columbus -2:08.24 18:35.69 20:43.93
Luke Murray Galloway -45.30 18:35.75 19:21.05
Brady Kalessa North Oconee -43.99 18:38.67 19:22.66
Caleb Pattillo Brookstone -1:19.88 18:39.74 19:59.62
Coe Booker Coahulla Creek HS -1:30.22 18:40.05 20:10.27
Daniel Ruiz Gainesville High School -1:13.57 18:40.22 19:53.79
Lawson Blake Darlington School -1:39.32 18:40.82 20:20.14
Joshua Turman LaGrange -2:57.11 18:40.86 21:37.97
Kenneth McDonald Greenbrier High School -1:37.04 18:42.87 20:19.91
Julio Lopez Calhoun -46.45 18:43.41 19:29.86
Erin Leonard Jones County High School -1:55.37 18:43.74 20:39.11
Sam Riviere Woodward Academy -2:40.04 18:45.30 21:25.34
Sid Saber Brookstone -2:11.32 18:47.48 20:58.80
Omar Maldonado Pepperell High School -2:12.96 18:49.77 21:02.73
Caleb Corliss Whitefield Academy -1:41.23 18:50.19 20:31.42
Micah Burdette Landmark Christian School +23.69 19:19.19 18:55.50
Zack Burnett Union Grove HS -51.65 18:56.99 19:48.64
Rico Selman Walnut Grove HS -1:46.35 18:57.28 20:43.63
Ian Shunk Druid Hills +8.97 19:08.36 18:59.39
Andrew Tait Hiram High School -1:57.49 18:59.72 20:57.21
Patrick Dupree Armuchee -2:58.17 18:59.87 21:58.04
Jack Cenatempo Woodward Academy -1:09.15 19:00.04 20:09.19
Timothy Murphy Union County HS -1:51.89 19:00.57 20:52.46
Brian Martinez Murray County High School -1:37.97 19:00.88 20:38.85
Colton Wooster Landmark Christian School -15.76 19:02.36 19:18.12
Alec Tubbs Paideia -50.49 19:04.70 19:55.19
Dawson Frey North Oconee -17.39 19:05.86 19:23.25
Brian Smith Woodward Academy -56.59 19:06.71 20:03.30
Bruce Salinas Union Grove HS -1:28.31 19:07.63 20:35.94
Jonathan Santana Calhoun -28.08 19:08.43 19:36.51
Elriver Ramirez Glynn Academy -1:32.46 19:09.59 20:42.05
Anna Marian Block Athens Academy +57.59 20:07.56 19:09.97
Porter Null Holy Innocents' Episcopal School -45.86 19:10.48 19:56.34
Espen Oswald Mount Paran Christian School -27.74 19:10.53 19:38.27
William Glasser Decatur High School -1:41.26 19:11.40 20:52.66
Peter Hess Wesleyan School -36.16 19:12.21 19:48.37
Jerry Turley Locust Grove High School -1:50.27 19:12.45 21:02.72
Jonathan Hunter Central Macon -1:41.53 19:12.47 20:54.00
Anthony Thomas Eastside -21.96 19:14.28 19:36.24
Caleb Boyd Heritage HS, Catoosa -1:59.45 19:14.62 21:14.07
Joshua Teague Gilmer High -2:26.59 19:17.49 21:44.08
Aaron Knowles Pepperell High School -1:52.34 19:18.41 21:10.75
Ulices Gonzalez Jeff Davis -3:02.90 19:21.82 22:24.72
Aidan Broker Benedictine Military School -1:38.06 19:23.06 21:01.12
Tyler McNall Evans High School -30.69 19:26.34 19:57.03
Alexander Windham Allatoona HS -5.24 19:26.84 19:32.08
Graham Lewis South Effingham High School -1:59.68 19:28.69 21:28.37
John Griner Lamar County High School -4:02.91 19:28.70 23:31.61
Dimmazio Barton Butler -5:11.62 19:29.93 24:41.55
Cooper Martin First Presbyterian Day School -2:59.16 19:30.77 22:29.93
Ciyeed Williams Westside, Augusta +2:03.94 21:35.75 19:31.81
Ryan Drew Brookstone -3:25.30 19:32.56 22:57.86
Harrison Walker Armuchee -3:43.44 19:33.17 23:16.61
Mary Kellison Thorne Landmark Christian School -1:05.57 19:33.76 20:39.33
Stuart Gordon Woodward Academy -44.21 19:33.91 20:18.12
Rafael Osella Effingham County -10.64 19:34.60 19:45.24
Jacob Busek Cartersville High School -1:39.61 19:35.58 21:15.19
Caroline McArthur Oconee County High School -3:13.17 19:36.07 22:49.24
Josie Wirtz Marist -1:40.18 19:36.17 21:16.35
Erika Plummer Flowery Branch -1:50.71 19:36.57 21:27.28
Caden Panter Walnut Grove HS -2:51.85 19:37.23 22:29.08
Jack Wray Pace Academy -2.71 19:37.68 19:40.39
Peter Johnson Galloway +29.13 20:09.08 19:39.95
Luke McLemore Whitefield Academy -37.45 19:40.34 20:17.79
Michael Daniels Chapel Hill High School -6.86 19:41.14 19:48.00
Noah Williams Sandy Creek +6.09 19:47.30 19:41.21
Sean Morris Whitefield Academy -38.46 19:42.99 20:21.45
Grace Clements Bremen High School -2:52.31 19:44.68 22:36.99
Luis Hernandez East Jackson High School -2:11.43 19:45.31 21:56.74
Jude Slaughter Woodward Academy -7.64 19:46.14 19:53.78
Sue Ann Morales East Jackson High School +45.10 20:36.13 19:51.03
Ismael Castaneda Chestatee -45.58 19:52.71 20:38.29
Sophia West Paideia +4.15 19:58.16 19:54.01
Colby Ives Union County HS -1:13.89 19:56.41 21:10.30
Brady Hamill Sandy Creek +1:37.79 21:41.38 20:03.59
Seth Romine Pickens County +4.96 20:09.64 20:04.68
Canon Templeton Lamar County High School -1:48.41 20:05.79 21:54.20
Dakota Rowland Dodge County High School +31.92 20:38.31 20:06.39
Sarah Foreman Landmark Christian School -29.98 20:10.32 20:40.30
Parker Dixon Thomas County Central High School -42.24 20:12.06 20:54.30
Delaney Graham Westminster School -1:18.77 20:13.36 21:32.13
Tyquavious Hines Monroe Comprehensive High School -3:31.56 20:14.25 23:45.81
Samantha Cameron Dunwoody -7.49 20:18.52 20:26.01
Avery Franklin Pickens County -20.10 20:20.92 20:41.02
Shannon Hoolahan Flowery Branch -4:24.93 20:26.80 24:51.73
Adam Basso Lamar County High School -2:15.85 20:28.34 22:44.19
Damarcus Caines Dodge County High School -1:37.22 20:29.83 22:07.05
Charlie Pike Galloway +52.55 21:22.52 20:29.97
Kelly May Sheehan Dunwoody +1:43.18 22:16.83 20:33.65
Mary Valli Starrs Mill High School -8.76 20:34.47 20:43.23
Lindsay Scifers Woodland -1:25.00 20:34.97 21:59.97
Leo Beaudoin Brookstone -1:24.63 20:36.13 22:00.76
Shemor Robinson Washington County -3:04.72 20:36.35 23:41.07
Kacie Wilson Winder-Barrow HS +2:02.82 22:39.31 20:36.49
Gehrig Patterson Union County HS -19.52 20:36.50 20:56.02
Kiki Popescu Marist -1:10.58 20:38.40 21:48.98
Malik Lee Vidalia -3:37.86 20:38.50 24:16.36
Ian Dougherty Callaway High School -1:46.62 20:44.02 22:30.64
Frankie Muldoon Dawson County -38.19 20:45.05 21:23.24
Jack Eady Darlington School -2:02.12 20:47.40 22:49.52
Aubrey Johnson Seminole County HS -1:19.72 20:50.03 22:09.75
Anna Tischer Midtown -1:17.87 20:51.53 22:09.40
Josh Ramos Eastside +1:32.04 22:24.41 20:52.37
Ashley McMahon Whitewater High School -1:29.55 20:52.40 22:21.95
Troyce Grant Cambridge HS -2:04.49 20:53.03 22:57.52
Chloe Phelps Cambridge HS -1:25.44 20:53.51 22:18.95
Beining Xiao Chamblee -49.61 20:55.78 21:45.39
Maggie Yankovich St. Pius X -2:13.77 20:56.20 23:09.97
Jaelen Alexander White County High School -28.25 20:58.11 21:26.36
Lindsey Biggar Landmark Christian School -1:09.38 20:58.21 22:07.59
Emma Rose Bagwell Blessed Trinity -58.67 20:59.37 21:58.04
Mathew Mosteiko Berrien County HS -1:42.35 21:00.90 22:43.25
Jackson Selman Benedictine Military School -41.39 21:01.10 21:42.49
Olivia Baljet Marist -1:01.01 21:01.22 22:02.23
Yonathan Mengistu Sandy Creek +1:10.93 22:16.96 21:06.03
Chris Protzman Chapel Hill High School +44.46 21:53.05 21:08.59
Jada Banks Heritage High School -3:31.97 21:09.33 24:41.30
Caroline Keim Fellowship Christian School -1:18.83 21:13.73 22:32.56
Victoria Flowers Westminster School -2.22 21:14.67 21:16.89
Alexandria Stevens Alexander -3:03.79 21:15.81 24:19.60
Magda Dumitrescu Midtown -1:59.15 21:19.09 23:18.24
Brianna Sattinger McIntosh High School -1:45.66 21:20.74 23:06.40
Lauren Maresca Blessed Trinity -55.76 21:21.07 22:16.83
Mckenzie Cromer Union Grove HS +41.85 22:04.03 21:22.18
Kate Mattison North Oconee -1:16.38 21:28.46 22:44.84
Stuart Ingram Lovett -56.69 21:28.69 22:25.38
Macy Moe Bleckley County High School -2:08.36 21:31.95 23:40.31
Catherine Hall Effingham County -30.63 21:31.99 22:02.62
Hannah Grainger Flowery Branch +8.51 21:41.07 21:32.56
Wyatt Cairns Evans High School -1.59 21:32.64 21:34.23
Alexa Staudt Savannah Christian Prep -1:45.57 21:34.67 23:20.24
Bryn Foster Holy Innocents' Episcopal School -31.09 21:36.48 22:07.57
Cece Ng Woodward Academy -41.44 21:37.91 22:19.35
Cynthia Lopez-Jordan Alexander -2:13.07 21:39.06 23:52.13
Emily Elder Athens Academy +8.66 21:49.48 21:40.82
Nicholas Granstrom Effingham County -51.19 21:42.14 22:33.33
Elizabeth Beveridge Lovett -23.53 21:42.85 22:06.38
Mariah Millsap Flowery Branch -2:36.93 21:44.62 24:21.55
Amanda Jackson Hebron Christian +2:00.28 23:45.38 21:45.10
Sarah Davis Buford High School -36.22 21:46.19 22:22.41
Julian Mcelhaney Mount Paran Christian School -29.28 21:46.36 22:15.64
Katelyn Alvarez Screven County -4:28.30 21:47.92 26:16.22
Paris Williams Chamblee -46.31 21:47.95 22:34.26
Keegan Kurtz Effingham County +1:48.82 23:38.75 21:49.93
Bailey Brackin Alexander -1:01.66 21:55.14 22:56.80
Catherine Osborn Allatoona HS -58.26 21:56.59 22:54.85
Alina Jablonski Jasper County HS -1:20.16 21:58.76 23:18.92
Sabrina Young Pickens County -1:22.42 22:04.68 23:27.10
Allison Smith Banks County HS -1:46.17 22:08.28 23:54.45
Gabby Huff-Streiter North Oconee -6.81 22:08.94 22:15.75
Veronica Sandoval Pace Academy -33.59 22:10.32 22:43.91
Chloe Paskins Cambridge HS -34.67 22:12.36 22:47.03
Addie Bolton White County High School -4:05.69 22:18.41 26:24.10
Tamera Mistry Lakeside, Evans -35.29 22:18.97 22:54.26
Kaitlin Ivey Walnut Grove HS -1:18.65 22:20.50 23:39.15
Katie Dorton Woodward Academy -1:12.02 22:20.65 23:32.67
Allie Sproull Rockmart -2:32.52 22:21.28 24:53.80
Rachel Ward Coahulla Creek HS -1:39.23 22:22.10 24:01.33
Jessica Tardy St. Pius X -2.32 22:22.94 22:25.26
Allison Tilton Allatoona HS -1:50.92 22:26.65 24:17.57
Sam Posey Mount Pisgah Christian School +8.21 22:36.12 22:27.91
Makaylee Cannington Whitewater High School -3:44.41 22:31.32 26:15.73
Marley Hamby Dawson County +1:16.64 23:50.24 22:33.60
Georgia Stockton Rabun County -2:06.29 22:33.65 24:39.94
Cara Eaton Thomas County Central High School -48.93 22:35.72 23:24.65
Sami Krinsky Galloway +5.31 22:42.12 22:36.81
Sydney Hendricks Providence Christian Academy +3:11.59 25:49.72 22:38.13
Kayla Hutcherson Armuchee -5:16.61 22:44.08 28:00.69
Bryce Phillips Hart County -38.72 22:45.96 23:24.68
Maggie Carlton Decatur High School -2:11.75 22:46.82 24:58.57
Mary Ella Owen Rockmart -4:21.67 22:48.72 27:10.39
Ed Eidson Rabun County -5:02.16 22:48.93 27:51.09
Lisa Medford Druid Hills -1:30.53 22:50.16 24:20.69
Alex Gass Heritage HS, Catoosa +29.63 23:22.26 22:52.63
Madison Congdon Hart County -23.43 22:53.85 23:17.28
Emory Sutherland Stratford Academy +1:35.02 24:29.12 22:54.10
Carson Smith Hart County -53.62 22:55.20 23:48.82
Georgina Hoffman North Hall +1:02.14 23:58.35 22:56.21
Sara Irvine Athens Academy +19.38 23:15.83 22:56.45
Ann Rafeedie Pace Academy -42.44 22:57.47 23:39.91
Chloe Chin East Paulding High School -2:14.38 22:58.17 25:12.55
Caylee Carpenter Heritage HS, Catoosa -1:28.42 22:59.08 24:27.50
Emily Greipsson Druid Hills -2:55.36 23:04.70 26:00.06
Matthew Brown North Cobb Christian -2:41.08 23:05.44 25:46.52
Quinn Kaloper Wesleyan School -8.89 23:06.90 23:15.79
Margaret Henry Lamar County High School -2:18.28 23:07.06 25:25.34
Blaine Fox Armuchee -3:20.24 23:07.78 26:28.02
Lydia Medford Druid Hills -1:38.04 23:08.76 24:46.80
Zoe Kreyenbuhl South Effingham High School -2:38.79 23:10.21 25:49.00
Morgan Mize North Hall -53.24 23:12.85 24:06.09
Gabrielle New Richmond Hill -2:13.83 23:15.43 25:29.26
Marie Ann Escobar Jeff Davis -2:39.97 23:19.87 25:59.84
Hattie Pitts Southeast Bulloch -13.79 23:21.32 23:35.11
Maddie Spinetto Mount Paran Christian School +2:14.97 25:36.96 23:21.99
Madeline Bonner Mount Paran Christian School -1:38.97 23:26.76 25:05.73
Hannah Mishkoff Columbus High School -3:22.69 23:27.41 26:50.10
Jahnaria Brown Bleckley County High School -2:34.57 23:28.69 26:03.26
Henry Stoneback Kendrick -2:18.15 23:29.34 25:47.49
maude todd Athens Christian -39.79 23:30.40 24:10.19
Sydney Tuttle Northgate -9.40 23:30.77 23:40.17
Hannah Skiotis Northgate +0.25 23:31.61 23:31.36
Andia Hermann Wayne County -3:17.31 23:31.73 26:49.04
Brylie Galeazzo East Paulding High School -3:37.98 23:32.15 27:10.13
Marley Mangione Greenbrier High School +2:33.99 26:06.59 23:32.60
Celine Al-Noubani Riverwood International Charter School -24.59 23:34.76 23:59.35
Molly Hayes Johnson HS -28.39 23:34.86 24:03.25
Emily Edwards Darlington School +2:09.24 25:44.52 23:35.28
Hayden Taylor Callaway High School -1.74 23:35.93 23:37.67
Alexis Lyon Harris Co. High School -5:00.92 23:37.25 28:38.17
Savannah Medlin Hiram High School -1:29.79 23:37.27 25:07.06
Yajaira Alvarado Jeff Davis -4:43.44 23:38.07 28:21.51
Kate Hoffman Savannah Christian Prep -36.84 23:39.13 24:15.97
Kyla Bellinski Northside Columbus +37.35 24:18.10 23:40.75
Kelsey Wade Model -23.16 23:42.60 24:05.76
Vanna Beach Cartersville High School -2:27.20 23:43.09 26:10.29
Alyssa Anderson Northside Columbus -3:01.11 23:43.49 26:44.60
Uriyah Davis Bainbridge High School -1:40.55 23:44.36 25:24.91
Corin Hoell Hart County +59.75 24:48.32 23:48.57
Camry Fillingame Bainbridge High School -2:46.52 23:52.70 26:39.22
Zyikeirra Robinson Clarkston +48.52 24:42.44 23:53.92
Karen Garcia Fitzgerald -1:43.50 23:56.91 25:40.41
Kaileigh Dowdy South Effingham High School -1:46.91 23:59.57 25:46.48
Synia White Heritage High School -3.53 24:00.39 24:03.92
Sophie Crane Galloway -30.17 24:03.33 24:33.50
Abby Wilcox Heritage High School +2:22.60 26:26.07 24:03.47
Kasana Page Coosa HS -5:01.21 24:03.51 29:04.72
Erin Kenney Hiram High School -55.34 24:04.19 24:59.53
Skye Remko Heritage HS, Catoosa +2:24.59 26:32.68 24:08.09
Drew Davis Bailey Athens Christian +1:02.48 25:11.18 24:08.70
Sarah-Grace Weatherford Winder-Barrow HS +16.67 24:26.17 24:09.50
Anna Smith Savannah Arts Academy -37.98 24:10.66 24:48.64
Grace Brock Holy Innocents' Episcopal School -7.35 24:11.88 24:19.23
Audrey Scoggins Providence Christian Academy +36.29 24:50.33 24:14.04
Bayli Shannon Veterans HS -30.60 24:18.78 24:49.38
Mary Sinsheimer Savannah Arts Academy -3:09.91 24:19.74 27:29.65
Brynn Upshaw West Laurens High School -2:28.41 24:22.33 26:50.74
Ellie Peterson Stratford Academy +1:53.73 26:17.23 24:23.50
Kayla Steele Coosa HS -1:32.25 24:26.28 25:58.53
Zayne Widner Seminole County HS +59.10 25:27.16 24:28.06
Mckinleigh Stripling Jones County High School +5.67 24:36.79 24:31.12
Esthefany Garcia Rabun County -2:23.10 24:31.81 26:54.91
Holly Moreland Heard County HS -2:28.59 24:34.75 27:03.34
Madeline Potts Central High School -1:20.90 24:36.19 25:57.09
Emily Bradley Heritage High School -1:57.46 24:37.38 26:34.84
Jessica Boyd Bremen High School -22.22 24:43.76 25:05.98
Sadie Medckie Armuchee -2:39.48 24:45.93 27:25.41
Chloe Hyatt Chamblee -4:46.04 24:49.06 29:35.10
Adamariz Perez Calhoun -0.07 24:52.40 24:52.47
Brynne Acuff St. Vincent's Academy (SVA) -2:28.44 24:56.64 27:25.08
Kalli Wilkes Jeff Davis -3:59.93 24:57.55 28:57.48
Jamie Yarbrough South Effingham High School +2:00.22 26:58.06 24:57.84
Kayla Martin Athens Christian -31.49 25:00.34 25:31.83
Beauty Nelson Glynn Academy +55.73 25:59.89 25:04.16
Romie Ingram Northside Columbus -3.65 25:06.39 25:10.04
Kayla Carpenter Cartersville High School +21.68 25:28.44 25:06.76
Johanna Hall Clarke Central -2:17.40 25:07.90 27:25.30
Kaylee Lucas Jackson HS +1:27.70 26:41.24 25:13.54
Emmi Schakat Union County HS -10.48 25:13.94 25:24.42
Avis Hulsey East Paulding High School -1:22.45 25:16.38 26:38.83
Mikala Monroe Jones County High School +2:22.86 27:40.84 25:17.98
Kennedy Smith Banks County HS -3:09.28 25:18.99 28:28.27
Taylor Warren Dade County HS -7.93 25:19.15 25:27.08
Mackenzie Davis Tattnall County High School -4:12.52 25:21.81 29:34.33
Donna Tran Oglethorpe County HS -2:29.21 25:22.58 27:51.79
Kayley Dale Mary Persons +15.65 25:43.09 25:27.44
Madison Bozydaj Rockmart +10.74 25:39.09 25:28.35
Olivia Goodman Lakeside, Evans -58.88 25:29.83 26:28.71
Jansyn Samples First Presbyterian Day School +1:35.05 27:08.52 25:33.47
Mary Jayne Bonfim First Presbyterian Day School +2:46.53 28:20.35 25:33.82
Lexi Hatten Lamar County High School -3:50.12 25:41.23 29:31.35
Kristina Lucas Jackson HS +2:21.93 28:03.63 25:41.70
Jamie Romano Jefferson High School -2:14.14 25:47.87 28:02.01
Brooke Reese Wayne County -36.94 25:50.35 26:27.29
Chelsey Barnes A.R. Johnson Health Science and Engineering Magnet School -3:44.90 26:04.53 29:49.43
Andrea Mendez Wayne County -32.98 26:16.13 26:49.11
Aileen Mejia Bainbridge High School -22.37 26:17.05 26:39.42
Jonica Hill Central Macon -1:48.62 26:20.60 28:09.22
Addie Grace Trejo Armuchee -3:01.14 26:21.87 29:23.01
Alexandria Nowell West Laurens High School -2:04.58 26:36.77 28:41.35
Alaiya Schuyler Bainbridge High School -2:18.11 26:45.96 29:04.07
Deanna Blythe Jackson HS +1:15.85 28:03.35 26:47.50
Fiona Flynn Greenbrier High School -12.47 26:50.22 27:02.69
Brianna Stansbury LaGrange +30.54 27:23.17 26:52.63
Carrie Neal Mary Persons +40.63 27:35.58 26:54.95
Nicolette Tucker Pickens County -3:39.83 26:59.13 30:38.96
Emily Juarez Tattnall County High School -1:29.03 27:01.00 28:30.03
Tomia Williams Westover High School -52.27 27:06.84 27:59.11
Molly Nix Berrien County HS -1:53.23 27:13.27 29:06.50
Celia Martinez Evans High School -2:10.81 27:13.80 29:24.61
Naamah Gray Westover High School -43.90 27:26.51 28:10.41
Ambreya Hughes Central Macon -2:30.58 27:29.07 29:59.65
Alma Manning Wayne County -45.90 27:33.55 28:19.45
Unique Pate Clarkston -2:05.57 27:57.59 30:03.16
Cheyenne Reese Wayne County -19.98 28:07.51 28:27.49
Marrisa Johnson Burke County -3:00.65 28:10.02 31:10.67
Nijeria Jordan Washington County -5:43.89 28:15.94 33:59.83
Hannah Longaberger Islands High School -1:47.52 28:37.81 30:25.33
Ashanty Hightower Northeast Macon +1:05.44 29:43.58 28:38.14
Chassidy Odom Worth County HS -2:29.69 28:49.08 31:18.77
Olivia Arneson Savannah Arts Academy -4:30.78 29:13.79 33:44.57
Caitlin Shephard Bainbridge High School +10.60 29:34.59 29:23.99
Audrey Harkness Jackson HS -1:08.27 29:42.06 30:50.33
Mary Beth Callaway LaGrange +3:36.43 33:22.01 29:45.58
Akira Minor East Laurens -1:49.91 29:50.83 31:40.74
Ja'Mya Canady East Laurens +34.45 33:10.32 32:35.87
Prosperity Blair A.R. Johnson Health Science and Engineering Magnet School -31.49 34:28.80 35:00.29
Samantha Wise A.R. Johnson Health Science and Engineering Magnet School +2:25.18 40:48.27 38:23.09